Regional Weather Roundup
Issued by NWS Grand Forks, ND

Home | Current Version | Previous Version | Text Only | Print | Product List | Glossary Off
Versions: 1 2 3 4 5 6 7 8 9 10 11 12 13 14 15 16 17 18 19 20 21 22 23 24 25 26 27 28 29 30 31 32 33 34 35 36 37 38 39 40 41 42 43 44 45 46 47 48 49 50

000
ASUS43 KFGF 042231
RWRFGF
PRAIRIE TO PINES  WEATHER ROUNDUP
NATIONAL WEATHER SERVICE EASTERN NORTH DAKOTA/GRAND FORKS ND
500 PM CDT FRI SEP 04 2015

 **SATELLITE DATA USED TO AUGMENT SKY COVER AT AUTOMATED STATIONS**
 *****  WEATHER ACROSS EASTERN NORTH DAKOTA  *****

CITY           SKY/WX    TMP DP  RH WIND       PRES   REMARKS
GRAND FORKS    CLOUDY    79  67  66 S9        29.79S
GRAND FRKS AFB CLOUDY    74  70  87 NE10      29.80S
GRAND FRKS NWS   N/A     75 N/A N/A S6          N/A
DEVILS LAKE    CLOUDY    70  63  78 E12       29.79S
FARGO          LGT RAIN  77  71  82 E5        29.81S
WAHPETON ARPT  MOCLDY    82  64  54 SE5       29.81S
$$

 ***** WEATHER ACROSS CENTRAL AND WESTERN NORTH DAKOTA  *****

CITY           SKY/WX    TMP DP  RH WIND       PRES   REMARKS
BISMARCK       SUNNY     87  67  51 VRB5      29.77S HX  90
MINOT          CLOUDY    70  60  70 NW16G25   29.83R
JAMESTOWN      CLOUDY    81  67  62 E3        29.78S
MINOT AFB      CLOUDY    71  63  77 N17       29.82R
GARRISON         N/A     79  64  60 N14       29.80S
WILLISTON      SUNNY     77  56  48 NE12      29.85F
DICKINSON      MOSUNNY   77  64  64 NE9       29.82S
HETTINGER      SUNNY     88  56  33 E5        29.80S
$$

 *****  OTHER AIRPORT OBSERVATIONS IN OUR AREA  *****

CITY           SKY/WX    TMP DP  RH WIND       PRES   REMARKS
WALHALLA       FAIR      66  66 100 MISG      29.81R
GRAFTON AIRPOR MOCLDY    66  66 100 N7        29.83R
VALLEY CITY AR FAIR      77  72  83 SE15      29.81R
CANDO          FAIR      73  68  83 S14G21    29.80R
CAVALIER APRT  LGT RAIN  66  64  94 CALM      29.80S
GWINNER          N/A     81  81 100 E10       29.81S HX  91
SHEYENNE NWR     N/A     76  71  84 SE7       29.95S
ROLLA          CLOUDY    64  64 100 N15G21    29.85R FOG
 ***** THE ABOVE OBSERVATIONS ARE NON NWS ARE NOT QUALITY
       CONTROLLED AND MAY MIS-REPORT RAIN FOR SNOW...
$$

  *****  WEATHER ACROSS NORTHERN MINNESOTA  *****

CITY           SKY/WX    TMP DP  RH WIND       PRES   REMARKS
FLAG ISLAND    CLOUDY    73  70  88 S7        29.84F
WARROAD        CLOUDY    79  73  83 S6        29.85S
ROSEAU         RAIN      77  72  83 SE6       29.83F
HALLOCK        HVY RAIN  68  66  94 CALM      29.82R
THF RVR FALLS  CLOUDY    73  72  94 S8        29.85S
BAUDETTE       CLOUDY    83  71  67 S10       29.87R
WASKISH        CLOUDY    82  73  74 S6        29.88R
CROOKSTON      HVY RAIN  75  70  83 SE8       29.82F
STEPHEN NDAWN    N/A     68  66  94 N7          N/A
GREENBUSH NDAW   N/A     70  68  94 N7          N/A
$$
  *****  WEATHER ACROSS CENTRAL AND WEST MINNESOTA  *****

CITY           SKY/WX    TMP DP  RH WIND       PRES   REMARKS
FOSSTON        CLOUDY    77  72  83 S5        29.88R
BEMIDJI        CLOUDY    79  71  76 SE6       29.89R
PARK RAPIDS    CLOUDY    84  71  65 SE10      29.87S
ELBOW LAKE     MOCLDY    80  73  78 SE8       29.84S HAZE
WADENA         LGT RAIN  81  72  74 SE8       29.87S
DETROIT LAKES  CLOUDY    79  70  73 SE3       29.88S
MOORHEAD       RAIN      75  72  88 SE3       29.83R
FERGUS FALLS   MOSUNNY   82  72  69 SE8       29.82S
MORRIS MN      PTSUNNY   82  73  74 S9        29.84R
STAPLES        PTSUNNY   82  72  69 SE3       29.88R
$$
  *****  WEATHER ELSEWHERE ACROSS MINNESOTA  *****

CITY           SKY/WX    TMP DP  RH WIND       PRES   REMARKS
DULUTH         MOSUNNY   76  66  71 E13       29.96S
INTRNTL FALLS  MOSUNNY   83  70  64 SE10      29.89R
ELY            SUNNY     79  63  57 SE14      29.98F
CLOQUET        SUNNY     72  63  73 E10       29.95S
WHEATON        PTSUNNY   81  68  65 SE13G18   29.84S
BRAINERD       PTSUNNY   85  71  63 SE10G17   29.88S HX  90
HIBBING        SUNNY     80  69  69 SE14G21   29.94R
ALEXANDRIA     PTSUNNY   83  72  69 S7        29.87S
SAINT CLOUD    MOSUNNY   88  74  63 SE14G24   29.86F HX  96
MINNEAPOLIS    PTSUNNY   87  73  62 SE10      29.89S HX  94
$$

  *****  WEATHER ACROSS SOUTH DAKOTA  *****

CITY           SKY/WX    TMP DP  RH WIND       PRES   REMARKS
SIOUX FALLS    PTSUNNY   80  71  74 SE16      29.84F
BROOKINGS      MOSUNNY  N/A N/A N/A SE20G25   29.84F
WATERTOWN      PTSUNNY   83  67  58 SE17G23   29.83F
HURON          SUNNY     88  70  55 SE15G22   29.74S HX  93
SISSETON         N/A     85  71  63 S15G22    29.80S HX  90
ABERDEEN       MOSUNNY   87  69  54 SE13      29.77S HX  91
MITCHELL       SUNNY     89  72  56 SE17G24   29.76S HX  96
PIERRE         SUNNY     91  66  43 SE10      29.71F HX  93
MOBRIDGE       SUNNY     91  65  41 E8        29.73S HX  93
RAPID CITY     SUNNY     90  57  32 N7        29.79F
$$

  *****  SOME WEATHER IN NEARBY STATES *****

CITY           SKY/WX    TMP DP  RH WIND       PRES   REMARKS
GLASGOW MT     LGT RAIN  76  50  40 NE14      29.85F
GREAT FALLS MT CLOUDY    51  49  92 NE8       29.99S
CHEYENNE WY    CLOUDY    81  37  20 S12G25    30.02F
SCOTTSBLUFF NE PTSUNNY   92  41  17 E9        29.86F
OMAHA NE       MOSUNNY   89  71  55 SE20      29.86F HX  95
DES MOINES IA  PTSUNNY   89  68  49 S13       29.93S HX  93
DAVENPORT IA   SUNNY     89  69  51 SW8       29.97S HX  93
CHICAGO IL     PTSUNNY   80  67  64 E8        30.01R
EAU CLAIRE WI  MOSUNNY   85  71  63 SE10      29.94F HX  90
LA CROSSE WI   MOSUNNY   88  69  53 SE9       29.95R HX  92
$$

  *****  SOME NATIONAL WEATHER *****

CITY           SKY/WX    TMP DP  RH WIND       PRES   REMARKS
LA GUARDIA NY  MOSUNNY   83  63  50 NE13      30.11R
RALEIGH NC     CLOUDY    80  69  69 NE5       30.00F
ATLANTA GA     LGT RAIN  80  69  69 NW8       29.98S
NEW ORLEANS LA PTSUNNY   82  71  69 S3        29.97S
OKLAHOMA CITY  MOSUNNY   93  66  40 S10       29.91F HX  96
ALBUQUERQUE NM LGT RAIN  68  59  73 S9        30.14F
SALT LAKE CITY MOSUNNY   87  34  15 S18G32    29.74F
LOS ANGELES CA MOSUNNY   75  57  53 W15       29.86F
BOISE ID       MOSUNNY   72  40  31 VRB7      29.71F
SEATTLE WA     PTSUNNY   59  47  64 N7        30.00S
$$

*** WEATHER ACROSS MANITOBA...SASKATCHEWAN AND ONTARIO ***
                ***ONTARIO***

CITY           SKY/WX    TMP DP  RH WIND       PRES   REMARKS
GERALDTON      MOSUNNY   81  61  50 S9        30.06F
THUNDER BAY    MOSUNNY   73  63  68 SE6       30.05F
SIOUX LOOKOUT  PTSUNNY   82  63  51 S8        29.95S
TORONTO        MOSUNNY   79  52  38 E8        30.10S
BIG TROUT LK   MOSUNNY   70  64  83 NW5       29.95R
PICKLE LAKE    MOSUNNY   82  57  42 S14       29.98R
DRYDEN         SUNNY     82  63  51 SE16G23   29.93F
KENORA         CLOUDY    81  70  69 SE12G18   29.87F
$$
                *** MANITOBA***

CITY           SKY/WX    TMP DP  RH WIND       PRES   REMARKS
BRANDON        TSTM      63  61  94 S5        29.89R FOG
DAUPHIN        CLOUDY    63  55  77 N12G18    29.93S
ISLAND LAKE    CLOUDY    63  61  94 N9        29.94R
PILOT MOUND      N/A     64  64 100 N9          N/A
THE PAS        CLOUDY    64  48  55 N6        30.01R
THOMPSON       MOSUNNY   68  45  42 NW12G21   29.94F
WINNIPEG       TSTM      68  68 100 NE10      29.79F
LYNN LAKE      PTSUNNY   59  45  58 W10G18    30.03S
CHURCHILL      PTSUNNY   52  48  87 N15       29.97R
GILLAM         PTSUNNY   66  52  59 W6        29.93R
$$
                ***SASKATCHEWAN***

CITY           SKY/WX    TMP DP  RH WIND       PRES   REMARKS
ESTEVAN        CLOUDY    66  54  63 NE13      29.90S
KINDERSLEY     LGT RAIN  54  43  66 NE6       30.10S
LLOYDMINSTER   CLOUDY    55  41  58 N8        30.13F
PRINCE ALBERT  MOSUNNY   61  45  55 N13       30.05F
REGINA         PTSUNNY   64  43  45 N17G25    29.95F
YORKTON        CLOUDY    61  48  63 N17       29.96F
N. BATTLEFORD  MOSUNNY   59  39  47 N7        30.11F
LA RONGE       CLOUDY    57  45  62 NW9       30.10F
SASKATOON      CLOUDY    59  41  51 N12       30.07F
SWIFT CURRENT  LGT RAIN  50  48  93 N9        30.05R
$$
NOTE: THESE ARE AUTOMATED STATIONS WITH LIMITED QUALITY CONTROL
      "FAIR" INDICATES FEW OR NO CLOUDS BELOW 12,000 FEET WITH NO
      SIGNIFICANT WEATHER AND/OR OBSTRUCTIONS TO VISIBILITY.
      SKY/WX - SKY CONDITION AND SIGNIFICANT WEATHER.
      TMP - AIR TEMPERATURE.    DP   - DEWPOINT TEMPERATURE.
      RH  - RELATIVE HUMIDITY.  PRES - PRESSURE.
      HX  - HEAT INDEX.         WCI  - WIND CHILL INDEX.
$



USA.gov is the U.S. government's official web portal to all federal, state and local government web resources and services.